[[{"header":{"parameterUnit":"m.s-1","parameterCategory":1,"la1":30.2991,"la2":30.254,"lo1":-89.0895,"lo2":-89.0444,"dy":0.0017,"dx":0.0017,"nx":28,"ny":28,"refTime":"2025-04-18T09:00:00:Z","depth":0,"parameterNumber":2,"parameterNumberName":"U-component_of_WINDS"},"data":[0,0,0,0,0,0,0,0,0,0,0,0,0,0,0,0,0,0,0,0,0,0,0,0,0,0,0,0,0,0,0,0,0,0,0,0,0,0,0,0,0,0,0,0,0,0,0,0,0,0,0,0,0,0,0,0,0,0,-0.8682,-0.8683,0,-0.8767,-0.8768,-0.8769,-0.8807,-0.8806,-0.8806,-0.8806,-0.8896,-0.8899,-0.8901,0,0,0,0,0,0,0,0,0,0,0,0,0,-0.8555,-0.8557,-0.8682,-0.8683,-0.8684,-0.8767,-0.8768,-0.877,-0.8807,-0.8806,-0.8806,-0.8806,-0.8896,-0.8899,-0.8902,0,0,0,0,0,0,0,0,0,0,0,0,0,-0.8622,-0.8558,-0.8682,-0.8712,-0.8716,-0.8767,-0.8768,-0.877,-0.8807,-0.8806,-0.8806,-0.8806,-0.8895,-0.8898,-0.8902,-0.893,0,0,-0.8914,-0.8915,0,0,0,0,0,0,0,0,-0.8618,-0.8627,-0.8707,-0.871,-0.8715,-0.8776,-0.8757,-0.8824,-0.8807,-0.8772,-0.8806,-0.8806,-0.8857,-0.8864,-0.888,-0.8934,-0.8938,-0.8914,-0.8916,-0.8918,-0.8919,0,0,0,0,0,0,0,-0.8613,-0.8623,-0.8716,-0.8708,-0.8713,-0.8723,-0.8733,-0.877,-0.8815,-0.8775,-0.8778,-0.8788,-0.8859,-0.8876,-0.8883,-0.8939,-0.8914,-0.8917,-0.892,-0.8921,-0.9021,-0.9022,0,0,0,0,0,0,-0.8603,-0.8619,-0.8713,-0.8718,-0.8665,-0.8726,-0.8736,-0.8757,-0.8814,-0.8823,-0.8788,-0.8789,-0.887,-0.8878,-0.8886,-0.8923,-0.8918,-0.8922,-0.8924,-0.9021,-0.9021,-0.9022,0,0,0,0,0,0,-0.86,-0.8611,-0.871,-0.867,-0.8683,-0.8728,-0.8751,-0.8758,-0.8776,-0.8824,-0.8832,-0.8797,-0.887,-0.8881,-0.8919,-0.8926,-0.8923,-0.8927,-0.902,-0.9021,-0.9022,-0.8996,0,0,0,0,0,0,-0.8597,-0.861,-0.862,-0.8669,-0.8685,-0.874,-0.8751,-0.876,-0.8782,-0.8785,-0.8835,-0.8843,-0.8871,-0.8913,-0.8922,-0.8932,-0.893,-0.902,-0.9021,-0.9021,-0.8996,-0.8996,-0.8995,0,0,0,0,0,-0.8592,-0.861,-0.862,-0.8631,-0.8698,-0.874,-0.8749,-0.878,-0.8782,-0.8794,-0.8825,-0.8842,-0.8924,-0.8916,-0.8928,-0.8938,-0.902,-0.9021,-0.9021,-0.8997,-0.8996,-0.8995,0,0,0,0,0,0,-0.8561,-0.8617,-0.8629,-0.8663,-0.8697,-0.8746,-0.8761,-0.8778,-0.8812,-0.8813,-0.885,-0.8862,-0.8896,-0.8921,-0.8912,-0.8968,-0.8973,-0.8976,-0.8951,-0.895,-0.895,-0.8943,-0.8933,0,0,0,0,0,-0.8558,-0.8586,-0.8634,-0.866,-0.8676,-0.8716,-0.8735,-0.8756,-0.8792,-0.8807,-0.884,-0.8876,-0.891,-0.8932,-0.8966,-0.9,-0.9012,-0.9013,-0.9012,-0.9012,-0.9014,-0.9035,-0.9036,-0.9025,-0.9025,-0.9025,0,0,-0.8553,-0.8587,-0.8602,-0.8655,-0.8683,-0.8712,-0.8727,-0.8758,-0.8781,-0.8812,-0.8849,-0.8875,-0.8918,-0.8954,-0.8972,-0.8976,-0.902,-0.9013,-0.9012,-0.9015,-0.9036,-0.9037,-0.9038,-0.9025,-0.9025,-0.9025,0,0,-0.8558,-0.8586,-0.8611,-0.8639,-0.8681,-0.8707,-0.8713,-0.8761,-0.8779,-0.8817,-0.8841,-0.887,-0.8927,-0.8957,-0.8979,-0.8996,-0.9013,-0.9006,-0.9003,-0.9023,-0.9024,-0.9025,-0.9032,-0.9034,-0.9008,-0.9008,-0.9008,0,-0.8546,-0.8591,-0.8622,-0.8651,-0.8674,-0.8703,-0.8729,-0.8755,-0.8806,-0.8822,-0.8825,-0.8899,-0.8929,-0.8974,-0.8978,-0.8995,-0.9004,-0.9001,-0.9021,-0.9022,-0.9024,-0.9031,-0.9033,-0.9007,-0.9007,-0.9007,-0.9008,0,-0.8574,-0.8605,-0.862,-0.8668,-0.8693,-0.872,-0.8757,-0.8778,-0.8797,-0.8824,-0.8863,-0.8901,-0.8943,-0.8955,-0.8974,-0.9003,-0.9004,-0.9013,-0.9019,-0.9023,-0.903,-0.9033,-0.9006,-0.9006,-0.9006,-0.9007,0,0,-0.8562,-0.8627,-0.8632,-0.8655,-0.8704,-0.8729,-0.8758,-0.8799,-0.8817,-0.8852,-0.8878,-0.8927,-0.8936,-0.8962,-0.8984,-0.9002,-0.9014,-0.901,-0.9012,-0.901,-0.9049,-0.9041,-0.9043,-0.9026,-0.9026,-0.9027,-0.9045,0,-0.8575,-0.8627,-0.8657,-0.8698,-0.8727,-0.8755,-0.8781,-0.8815,-0.884,-0.887,-0.8899,-0.8933,-0.8942,-0.8958,-0.8977,-0.9008,-0.9022,-0.9008,-0.9052,-0.9053,-0.904,-0.9047,-0.9039,-0.9055,-0.9048,-0.9049,-0.9049,0,-0.8596,-0.8629,-0.8672,-0.8719,-0.8732,-0.8755,-0.8795,-0.8822,-0.8861,-0.8879,-0.8907,-0.893,-0.8964,-0.8967,-0.9014,-0.9003,-0.9024,-0.9042,-0.9043,-0.9049,-0.9051,-0.9053,-0.906,-0.9063,-0.9054,-0.9053,-0.9053,0,-0.8583,-0.8639,-0.8672,-0.8691,-0.8745,-0.8761,-0.8784,-0.8823,-0.8846,-0.8882,-0.8897,-0.8936,-0.8958,-0.8988,-0.9021,-0.902,-0.9066,-0.9071,-0.9082,-0.9081,-0.9091,-0.909,-0.9101,-0.9103,-0.9103,-0.9103,-0.9103,0,-0.8594,-0.8619,-0.8668,-0.8688,-0.8718,-0.8753,-0.8782,-0.8808,-0.8843,-0.887,-0.8897,-0.8922,-0.8964,-0.8995,-0.9021,-0.9057,-0.9067,-0.9083,-0.9089,-0.908,-0.9078,-0.9094,-0.9094,-0.9103,-0.9103,-0.9103,-0.9103,0,-0.8585,-0.8618,-0.8656,-0.8705,-0.8718,-0.8738,-0.878,-0.8802,-0.8829,-0.8863,-0.8873,-0.8916,-0.8954,-0.899,-0.9041,-0.9059,-0.9095,-0.9103,-0.9081,-0.9085,-0.9094,-0.9093,-0.9116,-0.9122,-0.9119,-0.9119,-0.9119,0,-0.8589,-0.861,-0.866,-0.868,-0.8703,-0.8734,-0.8757,-0.8792,-0.8816,-0.8862,-0.8879,-0.8918,-0.8952,-0.9011,-0.9048,-0.9087,-0.9097,-0.9103,-0.9103,-0.9094,-0.9098,-0.9096,-0.9099,-0.9102,-0.9102,-0.9102,-0.9101,0,-0.8594,-0.861,-0.8642,-0.8679,-0.8706,-0.8738,-0.877,-0.8785,-0.8827,-0.8852,-0.889,-0.8916,-0.8968,-0.9007,-0.9051,-0.9077,-0.9097,-0.9101,-0.9106,-0.9097,-0.9083,-0.9091,-0.9079,-0.91,-0.91,-0.9101,-0.9101,-0.9101,-0.8593,-0.8613,-0.8651,-0.8686,-0.8714,-0.8744,-0.8767,-0.8797,-0.8829,-0.8873,-0.8892,-0.8931,-0.8972,-0.9032,-0.9058,-0.909,-0.9094,-0.9101,-0.9103,-0.9104,-0.9102,-0.9078,-0.9098,-0.9098,-0.9098,-0.9098,-0.9098,0,-0.86,-0.8626,-0.8658,-0.8702,-0.873,-0.8745,-0.8782,-0.8805,-0.8838,-0.8873,-0.8906,-0.895,-0.8989,-0.9028,-0.9069,-0.9088,-0.9098,-0.9097,-0.9097,-0.9102,-0.9095,-0.9087,-0.9088,-0.9088,-0.9088,-0.9088,-0.9088,-0.9088,-0.8607,-0.8641,-0.8661,-0.871,-0.8737,-0.8774,-0.8794,-0.8823,-0.8851,-0.8899,-0.8931,-0.8956,-0.8994,-0.9038,-0.9074,-0.9085,-0.9099,-0.9096,-0.9109,-0.9102,-0.9103,-0.9103,-0.9096,-0.9099,-0.9099,-0.9114,-0.9114,-0.9114]},{"header":{"parameterUnit":"m.s-1","parameterCategory":1,"la1":30.2991,"la2":30.254,"lo1":-89.0895,"lo2":-89.0444,"dy":0.0017,"dx":0.0017,"nx":28,"ny":28,"refTime":"2025-04-18T09:00:00:Z","depth":0,"parameterNumber":3,"parameterNumberName":"V-component_of_WINDS"},"data":[0,0,0,0,0,0,0,0,0,0,0,0,0,0,0,0,0,0,0,0,0,0,0,0,0,0,0,0,0,0,0,0,0,0,0,0,0,0,0,0,0,0,0,0,0,0,0,0,0,0,0,0,0,0,0,0,0,0,6.2699,6.27,0,6.2786,6.2787,6.2788,6.2739,6.2736,6.2734,6.2732,6.2815,6.2819,6.2823,0,0,0,0,0,0,0,0,0,0,0,0,0,6.2483,6.2487,6.2699,6.27,6.2701,6.2786,6.2787,6.2788,6.2739,6.2736,6.2733,6.2731,6.2813,6.2818,6.2824,0,0,0,0,0,0,0,0,0,0,0,0,0,6.2574,6.2489,6.2699,6.2687,6.2687,6.2786,6.2787,6.2789,6.274,6.2736,6.2733,6.2729,6.2811,6.2818,6.2824,6.2938,0,0,6.2845,6.2848,0,0,0,0,0,0,0,0,6.2569,6.2582,6.2688,6.2688,6.2688,6.2748,6.2741,6.2838,6.2741,6.272,6.2732,6.2727,6.2795,6.2803,6.2827,6.2942,6.2945,6.2845,6.2849,6.2852,6.2854,0,0,0,0,0,0,0,6.2563,6.2578,6.2733,6.2689,6.269,6.2675,6.2684,6.2759,6.2776,6.2721,6.2718,6.2729,6.2794,6.282,6.2828,6.2946,6.2845,6.2851,6.2855,6.2858,6.3155,6.3159,0,0,0,0,0,0,6.2558,6.2573,6.273,6.2736,6.2619,6.2682,6.2692,6.2732,6.2775,6.2778,6.2732,6.2726,6.2811,6.2821,6.2831,6.2964,6.2852,6.2859,6.2862,6.3152,6.3156,6.316,0,0,0,0,0,0,6.2554,6.2573,6.2727,6.2654,6.2672,6.269,6.2735,6.2736,6.2762,6.2784,6.2786,6.2756,6.2808,6.2822,6.2911,6.2967,6.2862,6.2868,6.3147,6.3153,6.3158,6.3234,0,0,0,0,0,0,6.2548,6.2572,6.2617,6.2655,6.2676,6.2808,6.2739,6.274,6.2774,6.2768,6.2807,6.281,6.2807,6.2902,6.2918,6.2974,6.2873,6.3142,6.315,6.3157,6.3226,6.3241,6.3254,0,0,0,0,0,6.254,6.2634,6.2619,6.2638,6.2734,6.2812,6.2824,6.282,6.2779,6.2823,6.2837,6.2808,6.2959,6.2911,6.2929,6.2988,6.3138,6.3147,6.3156,6.322,6.3238,6.3254,0,0,0,0,0,0,6.2599,6.2638,6.2623,6.2732,6.2769,6.2803,6.2859,6.284,6.2888,6.2879,6.2871,6.288,6.2973,6.2989,6.2936,6.3098,6.3042,6.3054,6.3084,6.3102,6.3116,6.3109,6.2878,0,0,0,0,0,6.2625,6.2688,6.2718,6.2811,6.2831,6.2842,6.2876,6.287,6.2907,6.2922,6.2942,6.2977,6.3032,6.3068,6.312,6.3229,6.3235,6.3278,6.3292,6.3303,6.3314,6.337,6.3388,6.3189,6.3189,6.3189,0,0,6.2679,6.2708,6.2748,6.2824,6.2852,6.2914,6.2855,6.2924,6.2969,6.2931,6.3017,6.3033,6.3072,6.3171,6.3216,6.3188,6.337,6.3314,6.3323,6.3328,6.3381,6.34,6.3416,6.3195,6.3194,6.3193,0,0,6.2808,6.2838,6.2918,6.2947,6.2991,6.2998,6.3017,6.3054,6.3063,6.315,6.3122,6.3175,6.327,6.3298,6.3325,6.3463,6.3438,6.348,6.3553,6.3608,6.3623,6.3637,6.3684,6.3701,6.3491,6.3491,6.3491,0,6.2869,6.2964,6.2961,6.3032,6.3064,6.3035,6.3113,6.3142,6.3199,6.3221,6.319,6.3307,6.3332,6.3436,6.3469,6.3493,6.3512,6.3475,6.3622,6.3635,6.3648,6.3693,6.3711,6.3496,6.3496,6.3495,6.3495,0,6.3035,6.3101,6.316,6.3218,6.3257,6.3332,6.3337,6.3377,6.3367,6.3376,6.3463,6.3491,6.3547,6.3571,6.3562,6.3674,6.3655,6.3623,6.3565,6.3672,6.3713,6.3731,6.3503,6.3501,6.35,6.3499,0,0,6.3204,6.3259,6.328,6.3305,6.335,6.34,6.3472,6.3528,6.3561,6.3602,6.366,6.3741,6.3711,6.3741,6.3735,6.3783,6.3888,6.3745,6.3746,6.3768,6.4009,6.4032,6.4052,6.3872,6.3876,6.3878,6.4005,0,6.3334,6.3462,6.3461,6.3578,6.3637,6.3609,6.3671,6.3704,6.3715,6.3764,6.3774,6.3831,6.3789,6.3807,6.3854,6.3866,6.3936,6.3857,6.3923,6.3926,6.3913,6.4074,6.4098,6.4217,6.4022,6.4025,6.4027,0,6.3504,6.3551,6.3675,6.371,6.3734,6.3791,6.3841,6.389,6.3926,6.3929,6.3963,6.3949,6.4018,6.396,6.4055,6.4001,6.4028,6.4038,6.4042,6.4047,6.3981,6.408,6.4255,6.4272,6.4053,6.4051,6.4049,0,6.3612,6.3706,6.3792,6.3814,6.3858,6.3897,6.3917,6.3949,6.3983,6.4026,6.4047,6.4097,6.4124,6.4162,6.4161,6.4119,6.4256,6.4198,6.4258,6.4258,6.4287,6.4285,6.4466,6.4308,6.4308,6.4307,6.4307,0,6.3756,6.3833,6.384,6.3893,6.3976,6.3972,6.4054,6.407,6.4099,6.4151,6.413,6.418,6.4175,6.4225,6.4224,6.4301,6.4314,6.4316,6.4315,6.4317,6.4317,6.4334,6.4324,6.4312,6.4311,6.431,6.4309,0,6.389,6.3899,6.399,6.4024,6.4034,6.4094,6.4121,6.417,6.4178,6.4245,6.426,6.4272,6.4329,6.4332,6.4397,6.4396,6.4489,6.4479,6.4477,6.4475,6.4534,6.4528,6.4731,6.4756,6.4584,6.4586,6.4587,0,6.3981,6.4039,6.408,6.4114,6.4137,6.4193,6.4227,6.4224,6.426,6.4305,6.4347,6.4402,6.4446,6.4537,6.455,6.4599,6.4589,6.4657,6.4596,6.4596,6.4587,6.4583,6.4587,6.4668,6.467,6.4672,6.4673,0,6.4141,6.4142,6.4193,6.4245,6.4287,6.4327,6.4365,6.4394,6.4395,6.4436,6.4495,6.4529,6.4595,6.4649,6.4697,6.4714,6.4693,6.4692,6.4708,6.471,6.4706,6.4707,6.4507,6.4687,6.4686,6.4685,6.4684,6.4683,6.4255,6.4304,6.434,6.4396,6.4425,6.446,6.4507,6.4521,6.457,6.4625,6.462,6.4685,6.4716,6.4778,6.4799,6.4848,6.4824,6.4848,6.4854,6.4859,6.4864,6.47,6.4857,6.4856,6.4856,6.4855,6.4855,0,6.4411,6.4433,6.4485,6.4539,6.4583,6.4561,6.4601,6.4638,6.4696,6.4728,6.4772,6.4838,6.489,6.4907,6.4956,6.4992,6.4983,6.5005,6.5001,6.5005,6.4884,6.4864,6.5011,6.5011,6.5011,6.501,6.501,6.501,6.4498,6.458,6.4585,6.4679,6.4699,6.4763,6.4788,6.4819,6.4844,6.492,6.4963,6.4975,6.5,6.5051,6.5097,6.51,6.5118,6.5143,6.5143,6.5029,6.5013,6.4998,6.498,6.5148,6.5148,6.5259,6.526,6.5261]}]]